COSMOS 2526             
1 43432U 18037A   19259.35786813 -.00000352  00000-0  00000+0 0  9992
2 43432   0.0237 120.9767 0001293 340.0131 150.9212  1.00271838  5240
BREEZE-M R/B            
1 43433U 18037B   19259.36766805 -.00000178  00000-0  00000+0 0  9999
2 43433   1.2054  95.1795 0677202 332.1307  25.5902  0.90515009  4871